Regional Weather Roundup
Issued by NWS Little Rock, AR

Home | Current Version | Previous Version | Graphics & Text | Print | Product List | Glossary On
Versions: 1 2 3 4 5 6 7 8 9 10 11 12 13 14 15 16 17 18 19 20 21 22 23 24 25 26 27 28 29 30 31
000
ASUS44 KLZK 231005
RWRLZK

WEATHER ROUNDUP FOR ARKANSAS
NATIONAL WEATHER SERVICE LITTLE ROCK AR
400 AM CST THU NOV 23 2017

NOTE: "FAIR" INDICATES FEW OR NO CLOUDS BELOW 12,000 FEET WITH NO
SIGNIFICANT WEATHER AND/OR OBSTRUCTIONS TO VISIBILITY.

ARZ001-003-010-029-231100-
NORTHWEST ARKANSAS

CITY           SKY/WX    TMP DP  RH WIND       PRES   REMARKS
FAYETTEVILLE   CLOUDY    27  24  89 CALM      30.18F
FORT SMITH     CLOUDY    32  27  81 SE3       30.21S
HARRISON       CLOUDY    33  22  63 SW3       30.16F
BENTONVILLE    CLOUDY    31  25  78 CALM      30.19S
ROGERS         CLOUDY    32  24  72 S3        30.17F
SILOAM SPGS    CLOUDY    29  23  78 SE3       30.17F
HIGHFILL       PTCLDY    29  23  78 CALM      30.17S
$$

ARZ004-005-016-231100-
NORTH CENTRAL ARKANSAS

CITY           SKY/WX    TMP DP  RH WIND       PRES   REMARKS
BATESVILLE     PTCLDY    29  24  82 CALM      30.21F
FLIPPIN        PTCLDY    28  23  81 CALM      30.19F
MTN HOME       CLOUDY    30  20  66 CALM      30.16F
$$

ARZ040-041-231100-
WEST CENTRAL ARKANSAS

CITY           SKY/WX    TMP DP  RH WIND       PRES   REMARKS
MENA           CLOUDY    28  28 100 CALM      30.19F
MOUNT IDA      CLOUDY    27  25  92 CALM      30.18R
$$

ARZ009-017-025-026-028-231100-
NORTHEAST ARKANSAS

CITY           SKY/WX    TMP DP  RH WIND       PRES   REMARKS
CORNING        PTSUNNY   30  27  86 CALM      30.22
JONESBORO      CLOUDY    29  24  82 CALM      30.21S
NEWPORT        PTCLDY    28  25  88 NW3       30.22F
WALNUT RIDGE     N/A     27  25  92 CALM      30.22S
BLYTHEVILLE    CLOUDY    28  26  92 N5        30.21S WCI  23
$$

ARZ022-023-033-042-044-231100-
CENTRAL ARKANSAS

CITY           SKY/WX    TMP DP  RH WIND       PRES   REMARKS
LITTLE ROCK    CLOUDY    32  29  88 CALM      30.23S
N LITTLE ROCK    N/A     35  25  66 CALM      30.24F
JACKSONVILLE   MOCLDY    29  24  81 W3        30.21F
SEARCY         PTCLDY    28  27  96 CALM      30.22F
HOT SPRINGS    PTCLDY    29  26  89 CALM      30.21F
RUSSELLVILLE   MOCLDY    28  27  96 CALM      30.20F
CLINTON        FAIR      27  25  93 CALM      30.21F
$$

ARZ036-231100-
EAST ARKANSAS

CITY           SKY/WX    TMP DP  RH WIND       PRES   REMARKS
WEST MEMPHIS   CLOUDY    26  25  96 CALM      30.19F
$$

ARZ050-053-066-070-073-231100-
SOUTHWEST ARKANSAS

CITY           SKY/WX    TMP DP  RH WIND       PRES   REMARKS
ARKADELPHIA    FAIR      22  20  92 CALM      30.23F
CAMDEN         CLOUDY    25  21  86 CALM      30.22S
TEXARKANA      CLOUDY    31  28  89 CALM      30.20S
EL DORADO      PTCLDY    26  26 100 CALM      30.21F
DE QUEEN       PTCLDY    27  27 100 E3        30.20S
$$

ARZ056-057-069-231100-
SOUTHEAST ARKANSAS

CITY           SKY/WX    TMP DP  RH WIND       PRES   REMARKS
PINE BLUFF     CLOUDY    28  25  88 CALM      30.22S
STUTTGART      PTCLDY    30  28  92 N5        30.22S WCI  25
MONTICELLO     PTCLDY    28  25  88 CALM      30.21S

$$






USA.gov is the U.S. government's official web portal to all federal, state and local government web resources and services.